Regional Weather Roundup
Issued by NWS Charleston, SC

Current Version | Previous Version | Graphics & Text | Print | Product List | Glossary On
Versions: 1 2 3 4 5 6 7 8 9 10 11 12 13 14 15 16 17 18 19 20 21 22 23 24 25 26 27 28 29 30 31 32 33 34 35 36 37 38 39 40 41 42 43 44 45 46 47 48 49 50
000
ASUS42 KCHS 210212
RWRCHS

Regional Weather Roundup
National Weather Service Charleston SC
900 PM EST TUE FEB 20 2018

NOTE: "fair" indicates few or no clouds below 12,000 feet with no
significant weather and/or obstructions to visibility.

Not all stations are quality controlled. Use data with caution,
especially dewpoint observations.

SCZ027-030-031-034>040-042>050-210300-
...Southeast South Carolina...

CITY           SKY/WX    TMP DP  RH WIND       PRES   REMARKS
N Charleston   MOCLDY    67  65  93 SE5       30.44R
Waterfront Prk   N/A     63  62  97 CALM      30.29R
Mount Pleasant FAIR      64  64 100 CALM      30.45R
Johns Island   FAIR      64  64 100 CALM      30.44R FOG
Pinopolis        N/A     68  66  94 VRB2      30.34S
Moncks Corner  FAIR      66  64  94 CALM      30.44R
Summerville    FAIR      70  64  83 SE5       30.44R
Beaufort MCAS  FAIR      70  68  93 SE5       30.42R
Beaufort Arpt  FAIR      68  64  88 SE3       30.42S
Hilton Head Is FAIR      68  66  94 VRB7G13   30.43R
Walterboro     FAIR      68  64  88 CALM      30.43S
Allendale      MOCLDY    70  68  94 SE6       30.41R

...Southern Midlands and Pee Dee...

CITY           SKY/WX    TMP DP  RH WIND       PRES   REMARKS
Georgetown     FAIR      61  61 100 CALM      30.46R
Kingstree      FAIR      66  64  94 SE3       30.44R
Orangeburg     CLOUDY    70  63  78 S5        30.42R
Barnwell         N/A     70  68  94 SE5       30.42R
Aiken          CLOUDY    68  64  88 SE9       30.43S
Manning        FAIR      68  63  83 MISG      30.43R
Columbia       FAIR      73  65  75 SE7       30.40R
Sumter         CLOUDY    69  63  80 SE5       30.41R
Florence       FAIR      68  64  87 S7        30.43R
Myrtle Beach   FAIR      64  63  96 S10       30.46R
N Myrtle Beach FAIR      67  65  93 S8        30.45R

$$

GAZ063-065-086>088-099>101-113>116-118-119-134>141-150-210300-
...Southeast Georgia...

CITY           SKY/WX    TMP DP  RH WIND       PRES   REMARKS
Savannah Arpt  FAIR      69  67  93 SE8       30.41R
Hunter AAF     FAIR      69  67  94 SE7       30.39R
Fort Stewart   FAIR      68  65  91 SE7       30.38R
Statesboro     CLOUDY    71  65  79 SE5       30.40S
Sylvania       CLOUDY    70  69  96 SE3       30.42R
Claxton        FAIR      72  68  87 E3        30.40R

...CSRA, Central and far Southeast Georgia...

CITY           SKY/WX    TMP DP  RH WIND       PRES   REMARKS
Thomson        CLOUDY    72  62  72 S5        30.43R
Augusta-Bush   CLOUDY    72  65  78 SE8       30.38R
Augusta-Daniel CLOUDY    73  65  75 SE8       30.40R
Swainsboro     CLOUDY    73  66  78 SE10      30.40R
Vidalia        CLOUDY    72  66  83 SE3       30.39R
Eastman        FAIR      74  58  58 SE3       30.39R
Hazlehurst     FAIR      73  63  70 SE8       30.37R
Alma           FAIR      72  66  81 E7        30.37R
Waycross       FAIR      72  69  90 SE9       30.37R
Jesup          MOCLDY    72  66  83 SE5       30.39R
Baxley         CLOUDY    70  70 100 SE6       30.38R
Brunswick      MOCLDY    70  64  83 SE7       30.40R
Saint Simons   CLOUDY    69  67  93 SE10      30.39R

$$

SCZ027-028-034-036>038-045-046-048>050-GAZ119-141-210300-
...Lake and Supplemental Coastal Observations...

STATION/POSITION TIME  TEMP    WIND        PRES    WAVE   SWELL
                       AIR SEA DIR/SP/G            HT/PER HT/PER/DIR
                 (UTC) (F)     (DEG/KT/KT) (MB)    (FT/S) (FT/S/D)
Winyah Bay       0045   64        CALM     1031.0
Lake Murray      NOT AVBL
ACE Basin NERRS  0045   69     130/  2     1030.0
Fort Pulaski     0148   68 60  130/  5/  8 1030.2R
Sapelo Island    0100   70     130/  6     1029.0

$$

ANZ835-935-AMZ111-154-330-350-352-354-370-450-454-472-210300-
...C-MAN and Buoy Observations...

STATION/POSITION TIME  TEMP    WIND        PRES    WAVE   SWELL
                       AIR SEA DIR/SP/G            HT/PER HT/PER/DIR
                 (UTC) (F)     (DEG/KT/KT) (MB)    (FT/S) (FT/S/D)
Buoy 41004       0150   71     140/  8/ 10 1031.1R   4/ 7   3/140/ 7
Buoy 41008       0150   63 59  130/  8/  8 1029.1R   4/ 6   3/140/ 6
Folly Beach CMAN NOT AVBL
Capers Nearshore 0108   60 62  130/  6/  8 1030.2R
Fripp Nearshore  0108   60 59  110/  6/  8 1029.0R


STATION/POSITION TIME  TEMP    WIND        PRES    WAVE   SWELL
                       AIR SEA DIR/SP/G            HT/PER HT/PER/DIR
                 (UTC) (F)     (DEG/KT/KT) (MB)    (FT/S) (FT/S/D)
5E St. Marys GA  0200      63                N/A     4/ 6
Frying Pan Buoy  0150   72     160/ 10/ 10 1031.2R   3/ 6   3/140/ 6
Buoy 41025       0150   72     180/ 16/ 19 1032.5R   4/11   3/ 70/11
Cape Lookout NC  NOT AVBL
Buoy 41002       0150   72 74  110/ 14/ 16 1032.8R   5/12   3/ 50/12
Buoy 41010       NOT AVBL
St Augustine FL  NOT AVBL


$$




USA.gov is the U.S. government's official web portal to all federal, state and local government web resources and services.